Orbital Elements at Epoch 2459000.5 (2020-May-31.0) TDB
Reference: JPL 20 (heliocentric ecliptic J2000)
Element | Value | Uncertainty (1-sigma) | Units |
e | .1316947033987026 | 4.2091e-08 | |
a | 2.556955900524376 | 1.3612e-08 | au |
q | 2.220218351601256 | 1.0864e-07 | au |
i | 2.346835510056845 | 5.3767e-06 | deg |
node | 279.3936244313402 | 0.000131 | deg |
peri | 162.5023597190415 | 0.0001333 | deg |
M | 326.1259657683921 | 2.5414e-05 | deg |
tp | 2459141.023094510151 (2020-Oct-18.52309451) | 0.0001058 | TDB |
period | 1493.424540985155 4.09 | 1.1926e-05 3.265e-08 | d yr |
n | .2410567056588756 | 1.925e-09 | deg/d |
Q | 2.893693449447496 | 1.5405e-08 | au |
|
| | Orbit Determination Parameters
Additional Information
|